Corona, CA

5:18 PM PDT on October 19, 2017 (GMT -0700)
Corona Municipal

Weather History for KAJO - October, 2012

Change the Weather History Date:

Thursday, October 4, 2012

  Actual Average (KCNO) Record (KCNO)
Temperature  
Mean Temperature 66 °F -  
Max Temperature 82 °F 82 °F 104 °F (2014)
Min Temperature 52 °F 50 °F 45 °F (2002)
Cooling Degree Days 2    
Growing Degree Days 16 (Base 50)    
Moisture  
Dew Point 56 °F    
Average Humidity 84    
Maximum Humidity 100    
Minimum Humidity 38    
Precipitation  
Precipitation 0.00 in - - ()
Sea Level Pressure  
Sea Level Pressure 30.06 in    
Wind  
Wind Speed - (North)    
Max Wind Speed -    
Max Gust Speed -    
Visibility 6 miles    
Events      
Averages and records for this station are not official NWS values.
T = Trace of Precipitation, MM = Missing Value Source: NWS Daily Summary

Daily Weather History Graph

Daily Weather History Graph

Search for Another Location

Airport or City:

Trip Planner

Search our weather history database for the weather conditions in past years. The results will help you decide how hot, cold, wet, or windy it might be!

Date:

Astronomy

Oct. 04, 2012 Rise Set
Actual Time 6:47 AM PDT 6:29 PM PDT
Civil Twilight 6:22 AM PDT 6:54 PM PDT
Nautical Twilight 5:53 AM PDT 7:23 PM PDT
Astronomical Twilight 5:24 AM PDT 7:52 PM PDT
Moon 9:21 PM PDT (10/4) 10:56 AM PDT (10/4)
Length of Visible Light 12h 32m
Length of Day
11h 42m
Waning Gibbous, 81% of the Moon is Illuminated
Oct 4
Waning Gibbous
Oct 8
Last Quarter
Oct 15
New
Oct 21
First Quarter
Oct 29
Full

Hourly Weather History & Observations

Time (PDT) Temp. Heat Index Dew Point Humidity Pressure Visibility Wind Dir Wind Speed Gust Speed Precip Events Conditions
12:56 AM 63.0 °F - 59.9 °F 90% 30.02 in 10.0 mi North - - N/A   Clear
1:56 AM 59.9 °F - 59.9 °F 100% 30.03 in 6.0 mi North - - N/A   Clear
2:56 AM 61.9 °F - 61.9 °F 100% 30.03 in 6.0 mi North - - N/A   Clear
3:56 AM 55.9 °F - 55.9 °F 100% 30.03 in 6.0 mi North - - N/A   Clear
4:56 AM 59.9 °F - 59.9 °F 100% 30.03 in 5.0 mi North - - N/A   Clear
5:45 AM 53.6 °F - 53.6 °F 100% 30.07 in 1.8 mi North - - N/A   Clear
5:49 AM 53.6 °F - 53.6 °F 100% 30.07 in 1.0 mi North - - N/A   Clear
5:56 AM 52.9 °F - 52.9 °F 100% 30.05 in 0.8 mi North - - N/A   Clear
6:00 AM 53.6 °F - 53.6 °F 100% 30.07 in 1.0 mi North - - N/A   Mist
6:03 AM 55.4 °F - 55.4 °F 100% 30.07 in 1.5 mi North - - N/A   Mostly Cloudy
6:16 AM 55.4 °F - 55.4 °F 100% 30.08 in 1.0 mi North - - N/A   Mist
6:24 AM 53.6 °F - 53.6 °F 100% 30.08 in 0.8 mi North - - N/A   Mist
6:28 AM 53.6 °F - 53.6 °F 100% 30.08 in 1.8 mi North - - N/A   Mostly Cloudy
6:30 AM 53.6 °F - 53.6 °F 100% 30.08 in 3.0 mi North - - N/A   Mostly Cloudy
6:37 AM 55.4 °F - 55.4 °F 100% 30.08 in 1.8 mi North - - N/A   Mostly Cloudy
6:43 AM 55.4 °F - 55.4 °F 100% 30.08 in 1.0 mi North - - N/A   Mostly Cloudy
6:48 AM 55.4 °F - 55.4 °F 100% 30.08 in 1.5 mi North - - N/A   Overcast
6:56 AM 54.9 °F - 54.9 °F 100% 30.07 in 1.5 mi North - - N/A   Overcast
7:08 AM 55.4 °F - 55.4 °F 100% 30.08 in 3.0 mi North - - N/A   Overcast
7:56 AM 59.9 °F - 59.0 °F 97% 30.09 in 7.0 mi North - - N/A   Overcast
8:17 AM 62.6 °F - 59.0 °F 88% 30.10 in 7.0 mi North - - N/A   Overcast
8:56 AM 63.0 °F - 59.0 °F 87% 30.09 in 6.0 mi North - - N/A   Mostly Cloudy
9:07 AM 64.4 °F - 59.0 °F 83% 30.11 in 6.0 mi North - - N/A   Haze
9:56 AM 68.0 °F - 59.0 °F 73% 30.10 in 8.0 mi North - - N/A   Clear
10:56 AM 72.0 °F - 56.8 °F 59% 30.10 in 10.0 mi North - - N/A   Clear
11:56 AM 75.9 °F - 54.9 °F 48% 30.08 in 10.0 mi North - - N/A   Clear
12:56 PM 79.9 °F - 54.9 °F 42% 30.05 in 10.0 mi North - - N/A   Clear
1:56 PM 81.9 °F 81.1 °F 54.0 °F 38% 30.03 in 10.0 mi North - - N/A   Clear
2:56 PM 81.9 °F 81.4 °F 55.9 °F 41% 30.01 in 10.0 mi North - - N/A   Clear
3:56 PM 81.0 °F 81.0 °F 56.8 °F 44% 30.00 in 10.0 mi North - - N/A   Clear
4:56 PM 77.9 °F - 57.9 °F 50% 30.00 in 10.0 mi North - - N/A   Clear
5:56 PM 72.9 °F - 56.8 °F 57% 30.01 in 10.0 mi North - - N/A   Clear
7:56 PM 66.9 °F - 56.8 °F 70% 30.04 in 10.0 mi North - - N/A   Clear
8:56 PM 64.9 °F - 56.8 °F 75% 30.05 in 10.0 mi North - - N/A   Clear
9:56 PM 59.9 °F - 55.9 °F 87% 30.06 in 10.0 mi North - - N/A   Clear
10:56 PM 56.8 °F - 52.9 °F 87% 30.07 in 10.0 mi North - - N/A   Clear
11:56 PM 54.9 °F - 52.0 °F 90% 30.06 in 9.0 mi North - - N/A   Clear